Date String (YYYY-MM-DD hh:mm:ss) UTC,Instrument flags,Ambient pressure (hPa),Sample flow (lpm),Bypass flow (lpm),Sample temperature (°C),Ambient temperature (°C),ASC tube jacket temperature (°C),LED temperature (°C),Box temperature (°C),Sample RH (%),Span deviation,Mass concentration (μg/m³),Mass concentration (μg/m³),Mass concentration (μg/m³)
DateTimeUTC,F1_M11,P_M11,Q1_M11,Q2_M11,T1_M11,T2_M11,T3_M11,T4_M11,T5_M11,U1_M11,ZSPAN_M11,X0_M11,X2_M11,X1_M11
2023-05-03 01:00:00,,0828.8,5.00,0.00,29.8,28.2,00.0,38.4,31.3,18.6,0000.0,0013.82,0005.05,0003.39
2023-05-03 01:01:00,,0828.8,5.00,0.00,29.8,28.1,00.0,38.4,31.3,18.4,0000.0,0014.52,0005.10,0003.39
2023-05-03 01:02:00,,0828.8,5.00,0.00,29.8,28.1,00.0,38.4,31.3,18.5,0000.0,0014.88,0005.11,0003.39
2023-05-03 01:03:00,,0828.7,5.01,0.00,29.8,28.1,00.0,38.4,31.3,18.2,0000.0,0014.81,0005.10,0003.39
2023-05-03 01:04:00,,0828.7,5.00,0.00,29.8,28.2,00.0,38.3,31.3,18.3,0000.0,0014.62,0005.05,0003.38
2023-05-03 01:05:00,,0828.8,4.99,0.00,29.8,28.2,00.0,38.3,31.3,18.0,0000.0,0014.37,0005.05,0003.40
2023-05-03 01:06:00,,0828.7,5.00,0.00,29.8,28.2,00.0,38.3,31.3,18.7,0000.0,0013.92,0005.10,0003.41
2023-05-03 01:07:00,,0828.7,5.01,0.00,29.8,28.2,00.0,38.3,31.3,18.9,0000.0,0013.39,0005.12,0003.42
2023-05-03 01:08:00,,0828.7,5.00,0.00,29.8,28.1,00.0,38.3,31.2,18.8,0000.0,0013.24,0005.08,0003.41
2023-05-03 01:09:00,,0828.7,5.01,0.00,29.8,28.1,00.0,38.3,31.2,18.9,0000.0,0013.32,0005.15,0003.43
2023-05-03 01:10:00,,0828.6,5.02,0.00,29.8,28.1,00.0,38.3,31.2,19.0,0000.0,0013.22,0005.15,0003.45
2023-05-03 01:11:00,,0828.6,5.00,0.00,29.7,28.1,00.0,38.3,31.2,18.8,0000.0,0012.88,0005.19,0003.46
2023-05-03 01:12:00,,0828.6,5.00,0.00,29.7,28.1,00.0,38.3,31.1,18.4,0000.0,0012.61,0005.17,0003.46
2023-05-03 01:13:00,,0828.6,5.00,0.00,29.7,28.1,00.0,38.3,31.2,18.0,0000.0,0011.99,0005.15,0003.47
2023-05-03 01:14:00,,0828.7,5.00,0.00,29.7,28.1,00.0,38.3,31.2,18.4,0000.0,0012.02,0005.21,0003.48
2023-05-03 01:15:00,,0828.8,4.99,0.00,29.7,28.1,00.0,38.2,31.2,17.6,0000.0,0012.15,0005.26,0003.50
2023-05-03 01:16:00,,0828.7,4.99,0.00,29.7,28.1,00.0,38.2,31.2,16.4,0000.0,0012.16,0005.28,0003.51
2023-05-03 01:17:00,,0828.7,4.99,0.00,29.7,28.1,00.0,38.2,31.3,17.2,0000.0,0011.50,0005.25,0003.51
2023-05-03 01:18:00,,0828.7,5.00,0.00,29.7,28.2,00.0,38.2,31.3,17.9,0000.0,0011.43,0005.23,0003.51
2023-05-03 01:19:00,,0828.7,5.00,0.00,29.8,28.2,00.0,38.2,31.3,18.0,0000.0,0011.30,0005.24,0003.51
2023-05-03 01:20:00,,0828.7,5.00,0.00,29.8,28.3,00.0,38.2,31.3,17.2,0000.0,0011.20,0005.22,0003.50
2023-05-03 01:21:00,,0828.7,5.00,0.00,29.8,28.3,00.0,38.2,31.3,16.9,0000.0,0011.15,0005.26,0003.49
2023-05-03 01:22:00,,0828.7,5.00,0.00,29.8,28.3,00.0,38.2,31.3,16.9,0000.0,0011.08,0005.22,0003.48
2023-05-03 01:23:00,,0828.7,5.00,0.00,29.7,28.2,00.0,38.2,31.3,16.8,0000.0,0011.50,0005.16,0003.48
2023-05-03 01:24:00,,0828.7,5.00,0.00,29.7,28.2,00.0,38.2,31.2,16.6,0000.0,0011.71,0005.19,0003.47
2023-05-03 01:25:00,,0828.7,5.00,0.00,29.7,28.1,00.0,38.2,31.2,16.8,0000.0,0012.04,0005.21,0003.48
2023-05-03 01:26:00,,0828.7,5.00,0.00,29.7,28.1,00.0,38.2,31.2,17.1,0000.0,0012.33,0005.19,0003.48
2023-05-03 01:27:00,,0828.6,5.01,0.00,29.7,28.1,00.0,38.2,31.3,17.4,0000.0,0012.20,0005.14,0003.47
2023-05-03 01:28:00,,0828.6,5.01,0.00,29.7,28.1,00.0,38.2,31.2,17.8,0000.0,0012.13,0005.13,0003.47
2023-05-03 01:29:00,,0828.6,5.01,0.00,29.7,28.1,00.0,38.2,31.2,18.0,0000.0,0012.13,0005.12,0003.47
2023-05-03 01:30:00,,0828.6,4.99,0.00,29.7,28.1,00.0,38.2,31.3,18.1,0000.0,0012.17,0005.14,0003.49
2023-05-03 01:31:00,,0828.6,5.00,0.00,29.7,28.2,00.0,38.2,31.3,18.3,0000.0,0012.08,0005.12,0003.49
2023-05-03 01:32:00,,0828.6,4.99,0.00,29.7,28.2,00.0,38.2,31.2,18.3,0000.0,0012.02,0005.08,0003.51
2023-05-03 01:33:00,,0828.6,4.99,0.00,29.8,28.2,00.0,38.2,31.2,18.3,0000.0,0012.20,0005.09,0003.52
2023-05-03 01:34:00,,0828.5,5.00,0.00,29.8,28.2,00.0,38.2,31.3,18.1,0000.0,0011.40,0005.10,0003.52
2023-05-03 01:35:00,,0828.5,5.01,0.00,29.8,28.2,00.0,38.2,31.3,18.0,0000.0,0011.26,0005.09,0003.53
2023-05-03 01:36:00,,0828.5,5.00,0.00,29.8,28.2,00.0,38.2,31.2,18.0,0000.0,0011.77,0005.11,0003.53
2023-05-03 01:37:00,,0828.5,5.00,0.00,29.8,28.2,00.0,38.2,31.3,17.8,0000.0,0011.55,0005.15,0003.54
2023-05-03 01:38:00,,0828.5,4.99,0.00,29.8,28.2,00.0,38.2,31.2,17.8,0000.0,0011.65,0005.20,0003.55
2023-05-03 01:39:00,,0828.4,5.00,0.00,29.8,28.2,00.0,38.2,31.2,17.9,0000.0,0011.70,0005.22,0003.56
2023-05-03 01:40:00,,0828.4,5.00,0.00,29.8,28.2,00.0,38.2,31.3,17.8,0000.0,0011.67,0005.21,0003.55
2023-05-03 01:41:00,,0828.4,5.00,0.00,29.8,28.2,00.0,38.2,31.3,17.8,0000.0,0011.75,0005.17,0003.54
2023-05-03 01:42:00,,0828.4,4.99,0.00,29.8,28.2,00.0,38.2,31.3,18.0,0000.0,0012.51,0005.17,0003.53
2023-05-03 01:43:00,,0828.4,4.99,0.00,29.8,28.2,00.0,38.2,31.3,18.0,0000.0,0012.63,0005.20,0003.53
2023-05-03 01:44:00,,0828.4,5.01,0.00,29.8,28.2,00.0,38.2,31.3,17.9,0000.0,0012.80,0005.23,0003.52
2023-05-03 01:45:00,,0828.4,5.00,0.00,29.8,28.2,00.0,38.2,31.3,18.0,0000.0,0012.73,0005.26,0003.53
2023-05-03 01:46:00,,0828.4,4.99,0.00,29.8,28.2,00.0,38.2,31.3,18.1,0000.0,0012.64,0005.24,0003.52
2023-05-03 01:47:00,,0828.4,5.00,0.00,29.8,28.3,00.0,38.2,31.3,18.0,0000.0,0012.69,0005.25,0003.52
2023-05-03 01:48:00,,0828.4,4.99,0.00,29.8,28.3,00.0,38.2,31.2,18.1,0000.0,0012.71,0005.24,0003.52
2023-05-03 01:49:00,,0828.4,4.99,0.00,29.8,28.3,00.0,38.2,31.2,18.2,0000.0,0013.07,0005.27,0003.52
2023-05-03 01:50:00,,0828.4,5.00,0.00,29.8,28.3,00.0,38.2,31.3,18.2,0000.0,0013.58,0005.31,0003.52
2023-05-03 01:51:00,,0828.4,5.01,0.00,29.8,28.3,00.0,38.2,31.3,18.4,0000.0,0014.34,0005.36,0003.52
2023-05-03 01:52:00,,0828.4,4.99,0.00,29.8,28.2,00.0,38.2,31.2,18.6,0000.0,0014.19,0005.37,0003.53
2023-05-03 01:53:00,,0828.4,4.99,0.00,29.8,28.2,00.0,38.2,31.2,18.7,0000.0,0013.47,0005.35,0003.54
2023-05-03 01:54:00,,0828.4,5.00,0.00,29.8,28.2,00.0,38.2,31.2,18.7,0000.0,0014.07,0005.31,0003.54
2023-05-03 01:55:00,,0828.4,5.02,0.00,29.8,28.2,00.0,38.2,31.2,18.7,0000.0,0014.04,0005.26,0003.54
2023-05-03 01:56:00,,0828.3,5.00,0.00,29.8,28.2,00.0,38.2,31.3,18.8,0000.0,0014.38,0005.24,0003.54
2023-05-03 01:57:00,,0828.3,4.99,0.00,29.8,28.2,00.0,38.2,31.3,18.8,0000.0,0014.58,0005.28,0003.54
2023-05-03 01:58:00,,0828.3,5.00,0.00,29.8,28.2,00.0,38.2,31.3,18.9,0000.0,0013.98,0005.23,0003.54
2023-05-03 01:59:00,,0828.3,4.99,0.00,29.8,28.2,00.0,38.2,31.3,18.9,0000.0,0013.51,0005.16,0003.55
